Location: Ferintosh
(52.7647°N, 112.9692°W)
Time: 22:34:11
(UTC+00:00)

Vanguard 1 Rocket - Pass Details

Date: 24 May 2024
Orbit: 649 x 4221 km, 34.3° (Epoch: 13 June)

Event Time Altitude Azimuth Distance (km) Brightness Sun altitude
Rises 13:43:49 0° 193° (SSW) 8,452 12.1 18.7°
Reaches altitude 10° 13:53:01 10° 179° (S) 7,237 12.0 20.1°
Maximum altitude 14:06:05 18° 145° (SE) 5,823 12.0 22.1°
Drops below altitude 10° 14:16:20 10° 110° (ESE) 5,604 12.8 23.6°
Sets 14:21:48 0° 94° (E) 6,008 13.0 24.5°
